TimeEST,TemperatureF,Dew PointF,Humidity,Sea Level PressureIn,VisibilityMPH,Wind Direction,Wind SpeedMPH,Gust SpeedMPH,PrecipitationIn,Events,Conditions,WindDirDegrees,DateUTC
12:53 AM,75.0,69.1,82,30.18,10.0,ESE,15.0,26.5,N/A,,Overcast,110,2013-12-08 05:53:00
1:12 AM,73.4,69.8,88,30.18,7.0,East,13.8,26.5,0.00,Rain,Light Rain,90,2013-12-08 06:12:00
1:38 AM,71.6,69.8,94,30.18,3.0,East,20.7,25.3,0.00,Rain,Light Rain,100,2013-12-08 06:38:00
1:53 AM,71.1,68.0,90,30.18,4.0,ESE,6.9,-,0.01,Rain,Light Rain,110,2013-12-08 06:53:00
2:15 AM,73.4,69.8,88,30.17,6.0,East,10.4,-,0.00,Rain,Light Rain,100,2013-12-08 07:15:00
2:44 AM,71.6,69.8,94,30.16,1.8,East,10.4,-,0.06,Rain,Heavy Rain,80,2013-12-08 07:44:00
2:50 AM,71.6,69.8,94,30.16,2.0,East,10.4,-,0.08,Rain,Rain,90,2013-12-08 07:50:00
2:53 AM,72.0,70.0,93,30.17,2.0,ESE,11.5,-,0.10,Rain,Rain,110,2013-12-08 07:53:00
3:11 AM,71.6,69.8,94,30.16,7.0,East,10.4,-,0.03,Rain,Light Rain,90,2013-12-08 08:11:00
3:53 AM,73.0,71.1,93,30.15,10.0,East,5.8,-,0.03,,Overcast,100,2013-12-08 08:53:00
4:53 AM,75.0,70.0,84,30.15,10.0,ESE,11.5,-,N/A,,Mostly Cloudy,110,2013-12-08 09:53:00
5:53 AM,75.0,66.9,76,30.17,10.0,ESE,11.5,-,N/A,,Clear,110,2013-12-08 10:53:00
6:53 AM,75.0,64.9,71,30.18,10.0,ESE,8.1,-,N/A,,Clear,120,2013-12-08 11:53:00
7:53 AM,75.9,66.9,74,30.20,10.0,ESE,9.2,-,N/A,,Partly Cloudy,110,2013-12-08 12:53:00
8:53 AM,78.1,68.0,71,30.22,10.0,ESE,10.4,-,N/A,,Overcast,110,2013-12-08 13:53:00
9:53 AM,80.1,68.0,67,30.22,10.0,ESE,10.4,-,N/A,,Mostly Cloudy,110,2013-12-08 14:53:00
10:53 AM,80.1,68.0,67,30.21,10.0,ESE,10.4,-,N/A,,Mostly Cloudy,110,2013-12-08 15:53:00
11:53 AM,81.0,68.0,65,30.19,10.0,ESE,13.8,-,N/A,,Scattered Clouds,110,2013-12-08 16:53:00
12:00 PM,80.6,68.0,65,30.18,10.0,ESE,11.5,18.4,N/A,,Mostly Cloudy,120,2013-12-08 17:00:00
12:23 PM,80.6,66.2,61,30.17,10.0,ESE,13.8,-,N/A,,Scattered Clouds,120,2013-12-08 17:23:00
12:53 PM,81.0,68.0,65,30.17,10.0,ESE,13.8,-,N/A,,Overcast,120,2013-12-08 17:53:00
1:53 PM,81.0,66.9,62,30.15,10.0,ESE,13.8,-,N/A,,Unknown,120,2013-12-08 18:53:00
2:53 PM,79.0,66.9,66,30.14,10.0,SE,12.7,-,N/A,,Unknown,130,2013-12-08 19:53:00
3:53 PM,80.1,66.0,62,30.14,10.0,SE,13.8,-,N/A,,Partly Cloudy,130,2013-12-08 20:53:00
4:53 PM,78.1,66.0,66,30.14,10.0,ESE,11.5,-,N/A,,Partly Cloudy,120,2013-12-08 21:53:00
5:53 PM,77.0,66.9,71,30.14,10.0,SE,10.4,-,N/A,,Partly Cloudy,130,2013-12-08 22:53:00
6:53 PM,77.0,66.9,71,30.16,10.0,ESE,10.4,-,N/A,,Overcast,120,2013-12-08 23:53:00
7:53 PM,78.1,69.1,74,30.17,10.0,ESE,11.5,-,N/A,,Overcast,120,2013-12-09 00:53:00
8:53 PM,78.1,69.1,74,30.18,10.0,ESE,13.8,-,N/A,,Overcast,120,2013-12-09 01:53:00
9:53 PM,77.0,70.0,79,30.18,10.0,ESE,16.1,20.7,N/A,,Overcast,110,2013-12-09 02:53:00
10:05 PM,77.0,69.8,78,30.18,10.0,ESE,9.2,-,N/A,,Overcast,110,2013-12-09 03:05:00
10:53 PM,78.1,69.1,74,30.18,10.0,ESE,16.1,21.9,N/A,,Overcast,120,2013-12-09 03:53:00
11:53 PM,78.1,69.1,74,30.17,10.0,SE,16.1,21.9,N/A,,Overcast,130,2013-12-09 04:53:00